Home   Weather   Macon   Past weeks
Flag for USA

Past Weather in Macon, Georgia, USA — Yesterday and Last 2 Weeks

Now
80 °F

Partly sunny.


Feels Like: 81 °F
Forecast: 76 / 56 °F
Wind: 10 mph from Southwest

Location: Middle Georgia Regional Airport

Current Time: Feb 22, 2019 at 6:17:32 pm

Latest Report: Feb 22, 2019 at 4:53 pm


Visibility: 10 mi

Pressure: 30.10 "Hg

Humidity: 54%

Dew Point: 62 °F

Location of MaconLocation

Past Weather in Macon — Graph

°F

Macon Temperature Yesterday

Maximum temperature yesterday: 69 °F (at 5:53 pm)
Minimum temperature yesterday: 51 °F (at 12:53 am)
Average temperature yesterday: 57 °F

High & Low Weather Summary for the Past Weeks

 TemperatureHumidityPressure
High83 °F (Feb 22, 2:53 pm)100% (Feb 11, 3:27 am)30.58 "Hg (Feb 11, 3:27 am)
Low30 °F (Feb 14, 4:53 am)22% (Feb 13, 4:53 pm)29.71 "Hg (Feb 16, 3:53 pm)
Average54 °F78%30.13 "Hg
* Reported Feb 7 4:53 pm — Feb 22 4:53 pm, Macon. Weather by CustomWeather, © 2019

Note: Actual official high and low records may vary slightly from our data, if they occured in-between our weather recording intervals... More about our weather records

Advertising

Macon Weather History for the Previous 24 Hours

Scroll right to see more
 ConditionsComfort  
Time TempWeatherWind HumidityBarometerVisibility
4:53 pm
Fri, Feb 22
80 °FPartly sunny.10 mph54%30.10 "Hg10 mi
3:53 pm80 °FPartly sunny.8 mph58%30.10 "Hg10 mi
2:53 pm83 °FPartly sunny.5 mph53%30.10 "Hg10 mi
1:53 pm80 °FPartly sunny.9 mph58%30.11 "Hg10 mi
11:53 am76 °FPassing clouds.6 mph72%30.16 "Hg10 mi
11:00 am71 °FPassing clouds.No wind84%30.19 "Hg10 mi
10:16 am65 °FFog.No wind100%30.19 "Hg1 mi
9:53 am64 °FFog.No wind100%30.18 "Hg0 mi
8:53 am62 °FFog.No wind100%30.16 "Hg0 mi
8:34 am61 °FFog.No wind100%30.17 "Hg1 mi
8:22 am60 °FFog.No wind100%30.16 "Hg1 mi
8:01 am57 °FFog.6 mph100%30.15 "Hg0 mi
7:16 am54 °FFog.No wind100%30.15 "Hg0 mi
6:53 am54 °FFog.No wind100%30.14 "Hg1 mi
6:14 am55 °FFog.3 mph100%30.14 "Hg1 mi
5:53 am54 °FFog.No wind100%30.12 "Hg0 mi
5:21 am56 °FFog.5 mph100%30.11 "Hg1 mi
5:11 am56 °FFog.3 mph100%30.10 "Hg1 mi
4:53 am56 °FFog.5 mph100%30.09 "Hg0 mi
4:07 am56 °FFog.No wind100%30.08 "Hg0 mi
3:37 am58 °FFog.No wind100%30.08 "Hg0 mi
3:05 am57 °FFog.No wind100%30.09 "Hg1 mi
2:09 am57 °FFog.5 mph100%30.09 "Hg0 mi
1:53 am57 °FFog.No wind100%30.08 "Hg0 mi
1:16 am58 °FFog.No wind100%30.09 "Hg0 mi
1:03 am57 °FFog.No wind100%30.10 "Hg1 mi
12:22 am58 °FFog.No wind100%30.09 "Hg0 mi
11:53 pm
Thu, Feb 21
59 °FFog.No wind100%30.08 "Hg0 mi
11:25 pm60 °FFog.3 mph100%30.09 "Hg0 mi
10:53 pm60 °FFog.No wind100%30.09 "Hg0 mi
10:33 pm63 °FFog.No wind100%30.10 "Hg1 mi
9:28 pm61 °FFog.No wind100%30.09 "Hg1 mi
8:53 pm61 °FFog.No wind100%30.07 "Hg0 mi
8:36 pm61 °FFog.No wind100%30.07 "Hg0 mi
8:02 pm62 °FFog.No wind100%30.07 "Hg0 mi
6:53 pm67 °FFog.No wind97%30.06 "Hg2 mi
Weather by CustomWeather, © 2019

See weather overview